Water Levels and Discharges  |  Reservoirs  |  Precipitation  |  Water quality Last site revision 01.09.2026 07:31
       
Water Levels and Discharges All data are without validation 01.09.2026 07:33:19
Seč
River: Chrudimka
Crest of dam elevation: 491,11 [m asl]
Spillway elevation: 488,61 [m asl]
Maximum flood control capacity level: 490,11 [m asl]
Usable storage capacity level: 486,81 [m asl]
Ineffective storage level: 469,61 [m asl]
Vertical coordinate system: Balt p.v.
Remark:
Schema:
Go to balance data (monthly series)
Graf
Date Water level [m. n. m.] Outflow [m3s-1] QN
01.09.2026 07:20 484,19 0,85
01.09.2026 07:00 484,19 0,85
01.09.2026 06:00 484,19 0,71
01.09.2026 05:00 484,19 0,73
01.09.2026 04:00 484,19 0,73
01.09.2026 03:00 484,19 0,73
01.09.2026 02:00 484,19 0,74
01.09.2026 01:00 484,19 0,74
01.09.2026 00:00 484,19 0,75
31.08.2026 23:00 484,19 0,76
31.08.2026 22:00 484,19 0,73
31.08.2026 21:00 484,19 0,72
31.08.2026 20:00 484,21 0,72
31.08.2026 19:00 484,22 0,73
31.08.2026 18:00 484,21
31.08.2026 17:00 484,21 0,72
31.08.2026 16:00 484,21
31.08.2026 15:00 484,21 0,75
31.08.2026 14:00 484,21 0,83
31.08.2026 13:00 484,21 0,73
31.08.2026 12:00 484,21 0,72
31.08.2026 11:00 484,21 0,73
31.08.2026 10:00 484,21 0,73
31.08.2026 09:00 484,21 0,73
31.08.2026 08:00 484,21 0,72
31.08.2026 07:00 484,21 0,72
30.08.2026 07:00 484,23 0,71
29.08.2026 07:00 484,24
28.08.2026 07:00 484,25 0,69
27.08.2026 07:00 484,28 0,69
26.08.2026 07:00 484,32 0,67
This information is also available through the application for mobile phones with Android OS (only in the Czech language)  Reservoir levels
  Povodí Labe, státní podnik © 2026 The system uses also data from measuring stations of   Czech Hydrometeorological Institute © 2026 Application developed by   MGE Data s.r.o. © 1996 - 2024